Flag for Italy Weather past 2 weeks in Cagliari, Italy

Now
68 °F

Sunny.


Feels Like: 68 °F
Forecast: 55 / 63 °F
Wind: 22 mph from Northwest

Location: Cagliari / Elmas

Current Time: Mar 31, 2015 at 2:08:12 PM

Latest Report: Mar 31, 2015 at 1:20 PM


Visibility: 10 mi

Pressure: 30.09 "Hg

Humidity: 60%

Dew point: 54 °F

Location of CagliariLocation

Historic Weather in Cagliari — Graph

°F

Cagliari temperature yesterday

Maximum temperature yesterday: 66 °F (at 11:20 AM)
Minimum temperature yesterday: 59 °F (at 12:20 AM)
Average temperature yesterday: 62 °F

Past Weeks' High & Low Weather Summary

 TemperatureHumidityPressure
High66 °F (Mar 28, 12:20 PM)100% (Mar 16, 11:20 AM)30.18 "Hg (Mar 16, 11:20 AM)
Low46 °F (Mar 17, 5:50 AM)37% (Mar 28, 12:50 PM)29.27 "Hg (Mar 25, 4:50 AM)
Average57 °F81%29.91 "Hg
* Reported Mar 16 11:20 AM — Mar 31 12:50 PM, Cagliari, Weather by CustomWeather, © 2015

Note: Actual official high and low records may vary slightly from our data, if they occured in-between our weather recording intervals... More about our weather records

Advertising

Cagliari weather history for previous 24 hours

 ConditionsComfort  
Time TempWeatherWind HumidityBarometerVisibility
12:50 PM
Tue, Mar 31
66 °FSunny.24 mph64%30.07 "Hg10 mi
12:20 PM66 °FSunny.23 mph64%30.09 "Hg10 mi
11:50 AM64 °FPassing clouds.26 mph68%30.09 "HgN/A
11:20 AM64 °FPassing clouds.29 mph64%30.07 "HgN/A
10:50 AM63 °FScattered clouds.29 mph68%30.07 "HgN/A
10:20 AM63 °FScattered clouds.28 mph68%30.07 "HgN/A
9:50 AM61 °FPartly sunny.32 mph72%30.07 "HgN/A
9:20 AM61 °FScattered clouds.28 mph72%30.07 "HgN/A
8:50 AM61 °FSunny.28 mph72%30.04 "Hg10 mi
8:20 AM61 °FSunny.25 mph72%30.04 "Hg10 mi
7:50 AM59 °FClear.26 mph77%30.04 "Hg10 mi
7:20 AM59 °FClear.22 mph77%30.04 "Hg10 mi
6:50 AM61 °FClear.23 mph68%30.04 "Hg10 mi
6:20 AM61 °FClear.24 mph72%30.04 "Hg10 mi
5:50 AM61 °FClear.26 mph72%30.01 "Hg10 mi
5:20 AM61 °FClear.21 mph72%30.04 "Hg10 mi
4:50 AM61 °FClear.20 mph72%30.04 "Hg10 mi
4:20 AM61 °FClear.17 mph72%30.04 "Hg10 mi
3:50 AM61 °FClear.13 mph72%30.04 "Hg10 mi
3:20 AM61 °FClear.17 mph72%30.04 "Hg10 mi
2:50 AM59 °FClear.14 mph77%30.04 "Hg10 mi
2:20 AM59 °FClear.15 mph77%30.04 "Hg10 mi
1:50 AM59 °FClear.10 mph77%30.04 "Hg10 mi
1:20 AM59 °FClear.9 mph77%30.04 "Hg10 mi
12:50 AM59 °FClear.8 mph77%30.04 "Hg10 mi
12:20 AM59 °FClear.13 mph77%30.04 "Hg10 mi
11:50 PM
Mon, Mar 30
59 °FClear.13 mph77%30.04 "Hg10 mi
11:20 PM59 °FClear.17 mph77%30.01 "Hg10 mi
10:50 PM59 °FClear.16 mph77%30.01 "Hg10 mi
10:20 PM59 °FClear.20 mph77%29.98 "Hg10 mi
9:50 PM59 °FClear.24 mph77%29.98 "Hg10 mi
9:20 PM59 °FClear.23 mph77%29.98 "Hg10 mi
8:50 PM59 °FClear.28 mph72%29.95 "Hg10 mi
8:20 PM61 °FSunny.31 mph68%29.92 "Hg10 mi
7:50 PM61 °FSunny.36 mph72%29.89 "Hg10 mi
7:20 PM61 °FSunny.37 mph68%29.89 "Hg10 mi
6:50 PM63 °FSunny.25 mph64%29.92 "Hg10 mi
6:20 PM63 °FPassing clouds.25 mph64%29.92 "HgN/A
5:50 PM64 °FSunny.26 mph60%29.89 "Hg10 mi
5:20 PM64 °FSunny.31 mph60%29.89 "Hg10 mi
4:50 PM64 °FSunny.36 mph60%29.89 "Hg10 mi
4:20 PM66 °FPassing clouds.33 mph52%29.89 "HgN/A
3:50 PM66 °FPassing clouds.25 mph52%29.95 "HgN/A
3:20 PM66 °FSunny.33 mph52%29.89 "Hg10 mi
2:50 PM66 °FSunny.41 mph52%29.83 "Hg10 mi
2:20 PM66 °FPassing clouds.46 mph49%29.86 "HgN/A
Weather by CustomWeather, © 2015

See weather overviewHow to use our weather pages